FW8877 Weather Reports


time (UTC)temp
C
wind
direction
speed
KPH
gust
KPH
rain 1hr
cm
rain 24hr
cm
rain mn
cm
humidity
%
barometer
mb
20260906233100 26 292 3.2 12.9 0.00 0.00 0.00 20 1012.9
20260906231557 26 176 0.0 16.1 0.00 0.00 0.00 21 1013.0
20260906230058 26 0 1.6 9.7 0.00 0.00 0.00 20 1013.1
20260906224610 26 271 3.2 16.1 0.00 0.00 0.00 19 1013.2
20260906223054 27 81 1.6 12.9 0.00 0.00 0.00 17 1013.4
20260906221554 27 293 3.2 17.7 0.00 0.00 0.00 17 1013.4
20260906220121 28 114 3.2 14.5 0.00 0.00 0.00 17 1013.5
20260906214549 28 247 3.2 16.1 0.00 0.00 0.00 17 1013.6
20260906213100 28 222 4.8 17.7 0.00 0.00 0.00 16 1013.6
20260906211610 28 285 4.8 9.7 0.00 0.00 0.00 17 1013.6
20260906210110 28 271 1.6 12.9 0.00 0.00 0.00 18 1013.9
20260906204552 28 64 3.2 17.7 0.00 0.00 0.00 17 1014.2
20260906203050 28 106 4.8 19.3 0.00 0.00 0.00 17 1014.4
20260906201549 28 41 6.4 27.4 0.00 0.00 0.00 19 1014.6
20260906200051 28 257 4.8 19.3 0.00 0.00 0.00 18 1014.4
20260906194614 28 312 3.2 14.5 0.00 0.00 0.00 18 1014.4
20260906193100 28 271 3.2 12.9 0.00 0.00 0.00 18 1014.4
20260906191549 28 103 3.2 12.9 0.00 0.00 0.00 21 1014.6
20260906190100 28 254 1.6 17.7 0.00 0.00 0.00 19 1015.0
20260906184607 27 105 1.6 14.5 0.00 0.00 0.00 21 1015.4
20260906183102 27 273 1.6 16.1 0.00 0.00 0.00 22 1015.7
20260906181551 27 103 3.2 9.7 0.00 0.00 0.00 24 1015.8
20260906180058 25 131 0.0 4.8 0.00 0.00 0.00 32 1016.0
20260906174552 23 0 0.0 3.2 0.00 0.00 0.00 40 1016.3
20260906173052 23 0 0.0 1.6 0.00 0.00 0.00 41 1016.6
20260906171603 22 0 0.0 1.6 0.00 0.00 0.00 44 1016.7
20260906170056 21 266 0.0 1.6 0.00 0.00 0.00 45 1016.8
20260906164557 20 0 0.0 1.6 0.00 0.00 0.00 48 1017.1
20260906163053 20 0 0.0 1.6 0.00 0.00 0.00 46 1017.1
20260906161600 20 0 0.0 0.0 0.00 0.00 0.00 48 1017.2
20260906160058 19 0 0.0 0.0 0.00 0.00 0.00 48 1017.3
20260906154555 18 0 0.0 0.0 0.00 0.00 0.00 51 1017.5
20260906153056 17 0 0.0 0.0 0.00 0.00 0.00 53 1017.6
20260906151549 16 0 0.0 0.0 0.00 0.00 0.00 57 1017.6
20260906144604 13 0 0.0 0.0 0.00 0.00 0.00 65 1017.5
20260906143051 11 0 0.0 0.0 0.00 0.00 0.00 72 1017.6
20260906141554 10 0 0.0 0.0 0.00 0.00 0.00 73 1017.4
20260906140108 10 0 0.0 0.0 0.00 0.00 0.00 72 1017.3
20260906134554 9 0 0.0 0.0 0.00 0.00 0.00 71 1017.3
20260906133054 9 0 0.0 0.0 0.00 0.00 0.00 72 1017.3
20260906131550 8 0 0.0 1.6 0.00 0.00 0.00 74 1017.2
20260906130051 8 0 0.0 1.6 0.00 0.00 0.00 76 1017.1
20260906124554 8 0 0.0 0.0 0.00 0.00 0.00 76 1017.2
20260906123054 8 0 0.0 0.0 0.00 0.00 0.00 75 1017.1
20260906121552 8 0 0.0 0.0 0.00 0.00 0.00 75 1016.8
20260906120053 9 0 0.0 0.0 0.00 0.00 0.00 73 1016.7
20260906114555 9 0 0.0 0.0 0.00 0.00 0.00 72 1016.8
20260906113059 10 0 0.0 1.6 0.00 0.00 0.00 71 1016.7
20260906111551 10 0 0.0 0.0 0.00 0.00 0.00 70 1016.7
20260906110050 11 0 0.0 0.0 0.00 0.00 0.00 68 1016.7
20260906104602 11 0 0.0 0.0 0.00 0.00 0.00 66 1016.5
20260906103053 11 0 0.0 0.0 0.00 0.00 0.00 64 1016.5
20260906101553 11 0 0.0 1.6 0.00 0.00 0.00 66 1016.3
20260906100051 12 0 0.0 1.6 0.00 0.00 0.00 66 1016.3
20260906094636 12 0 0.0 1.6 0.00 0.00 0.00 63 1016.4
20260906093104 13 0 0.0 1.6 0.00 0.00 0.00 59 1016.2
20260906091551 13 0 0.0 0.0 0.00 0.00 0.00 58 1016.3
20260906090052 13 0 0.0 1.6 0.00 0.00 0.00 58 1016.1
20260906084557 12 0 0.0 0.0 0.00 0.00 0.00 60 1015.8
20260906083055 13 0 0.0 0.0 0.00 0.00 0.00 61 1015.6
20260906081556 12 0 0.0 0.0 0.00 0.00 0.00 59 1015.3
20260906080054 13 0 0.0 0.0 0.00 0.00 0.00 56 1015.4
20260906074554 13 0 0.0 0.0 0.00 0.00 0.00 55 1015.2
20260906073055 13 0 0.0 0.0 0.00 0.00 0.00 52 1015.0
20260906071553 14 0 0.0 0.0 0.00 0.00 0.00 48 1014.9
20260906070052 15 0 0.0 1.6 0.00 0.00 0.00 42 1014.7
20260906064549 16 0 0.0 3.2 0.00 0.00 0.00 37 1014.7
20260906063057 18 0 0.0 1.6 0.00 0.00 0.00 33 1014.7
20260906061556 20 0 0.0 4.8 0.00 0.00 0.00 28 1014.6
20260906060053 20 142 0.0 6.4 0.00 0.00 0.00 27 1014.5
20260906054601 21 214 0.0 6.4 0.00 0.00 0.00 27 1014.4
20260906053055 21 150 1.6 8.0 0.00 0.00 0.00 26 1014.4
20260906051552 20 173 0.0 6.4 0.00 0.00 0.00 27 1014.6
20260906050107 18 0 0.0 6.4 0.00 0.00 0.00 30 1014.7
20260906044557 18 0 0.0 1.6 0.00 0.00 0.00 30 1015.0
20260906043056 20 0 0.0 1.6 0.00 0.00 0.00 29 1015.2
20260906041554 21 0 0.0 4.8 0.00 0.00 0.00 27 1015.2
20260906040114 20 132 0.0 4.8 0.00 0.00 0.00 27 1015.3
20260906034559 20 0 0.0 1.6 0.00 0.00 0.00 26 1015.4
20260906033057 20 0 0.0 1.6 0.00 0.00 0.00 27 1015.5
20260906031555 21 0 0.0 1.6 0.00 0.00 0.00 27 1015.6
20260906030053 21 126 0.0 1.6 0.00 0.00 0.00 26 1015.7
20260906024558 21 0 0.0 3.2 0.00 0.00 0.00 25 1015.7
20260906023054 22 129 0.0 3.2 0.00 0.00 0.00 25 1015.5
20260906021602 22 0 0.0 1.6 0.00 0.00 0.00 24 1015.5
20260906020056 23 0 0.0 4.8 0.00 0.00 0.00 23 1015.3
20260906014559 24 124 0.0 11.3 0.00 0.00 0.00 22 1015.4
20260906013054 25 172 0.0 4.8 0.00 0.00 0.00 21 1015.5
20260906011554 25 271 3.2 9.7 0.00 0.00 0.00 20 1015.5
20260906010051 26 265 1.6 11.3 0.00 0.00 0.00 19 1015.5
20260906004555 26 0 0.0 3.2 0.00 0.00 0.00 21 1015.5
20260906003051 26 314 0.0 8.0 0.00 0.00 0.00 20 1015.5
20260906001559 26 202 0.0 9.7 0.00 0.00 0.00 19 1015.4
20260906000058 27 0 0.0 6.4 0.00 0.00 0.00 20 1015.4
20260905234557 27 285 0.0 9.7 0.00 0.00 0.00 20 1015.5